Location: Erdweis
(48.5167°N, 15.3500°E)
Time: 14:32:41
(UTC+00:00)

USA 234 - Pass Details

Date: 22 January 2021
Orbit: 1100 x 1107 km, 123.0° (Epoch: 01 March)

Event Time Altitude Azimuth Distance (km) Brightness Sun altitude
Exits shadow 20:45:55 18° 292° (WNW) 2,409 5.4 -49.0°
Drops below altitude 10° 20:47:31 10° 299° (WNW) 2,965 6.0 -49.2°
Sets 20:50:07 0° 305° (NW) 3,927 6.8 -49.5°
